Theta_e
308 308 309 309 308 308 309 308 307 306 306 308 309 307 308 306 304 311 315 310 309 304 303 310 310 315 316 321 325 326 331 333 330 329 329 327 326 326 325 325 326 329 331 336 339
307 308 308 308 308 307 305 304 305 306 306 307 307 306 306 306 311 313 308 307 306 307 311 312 313 314 316 320 323 326 330 331 330 329 329 328 327 326 325 325 327 329 331 335 337
307 307 308 308 307 304 303 304 305 306 306 306 306 305 306 307 317 315 310 309 306 305 311 313 313 315 316 317 322 325 329 330 330 329 329 328 328 327 325 325 326 329 331 335 335
307 307 307 307 304 303 302 303 304 306 306 306 306 306 307 313 317 316 309 312 309 310 313 312 314 314 316 317 318 323 325 327 329 330 330 330 329 328 327 326 326 327 331 335 335
306 306 306 303 300 300 301 304 304 306 306 306 306 307 314 321 315 312 311 313 313 315 313 313 313 316 317 317 318 318 321 324 326 327 328 328 330 330 328 327 327 327 328 330 337
304 305 304 303 301 300 302 304 304 304 304 304 306 307 317 321 311 312 312 313 313 313 313 314 313 313 313 315 318 319 319 319 320 323 326 328 328 330 330 330 329 328 328 328 335
300 299 300 301 301 300 302 303 304 305 304 305 306 313 318 315 311 311 312 311 313 313 313 313 313 313 313 313 315 317 318 319 319 320 321 323 325 327 328 330 330 330 329 329 329
304 304 303 300 301 300 302 304 305 305 305 305 307 314 320 310 310 310 310 311 311 310 311 312 312 313 313 313 313 313 315 318 319 319 320 320 323 324 325 328 330 330 331 331 330
306 306 304 299 300 301 302 304 306 307 306 307 314 317 318 310 311 310 310 311 310 311 311 311 312 312 313 313 313 313 312 313 315 319 319 320 322 324 325 326 328 330 331 331 332
308 307 306 303 301 301 304 306 310 309 314 315 314 315 315 312 311 310 310 310 311 311 313 314 313 314 315 314 313 313 313 313 313 315 317 319 321 323 323 322 326 327 329 332 332
306 305 305 304 303 302 306 313 316 319 317 315 312 313 312 311 310 310 310 310 311 312 312 313 313 314 315 316 316 315 315 315 315 315 316 317 319 321 324 323 323 325 327 330 332
305 305 304 304 304 303 306 315 312 311 312 312 312 312 311 310 311 312 310 310 311 311 312 312 313 313 313 314 313 313 314 314 314 314 315 316 316 319 322 322 325 325 325 327 329
305 305 304 305 301 305 313 312 311 312 313 314 312 311 312 311 311 312 311 310 310 311 311 311 312 312 312 312 312 313 313 313 314 314 314 314 316 319 319 322 323 324 326 327 327
304 304 304 303 308 312 314 312 311 311 315 315 311 312 311 311 312 312 311 310 309 311 311 311 310 310 311 311 312 312 312 312 312 313 314 314 316 318 319 321 323 323 324 326 327
302 304 303 302 310 314 312 311 311 313 327 313 312 311 311 312 312 313 311 309 309 310 310 311 311 312 312 313 314 314 313 313 313 315 314 313 314 315 316 319 321 324 324 325 327
305 305 306 308 310 312 311 311 314 321 324 312 312 312 312 312 312 312 311 311 310 310 311 312 312 312 314 315 314 314 313 313 314 315 316 314 314 315 316 318 319 322 324 325 326
306 305 303 310 314 312 311 314 318 323 313 313 312 311 312 313 312 311 310 311 310 310 311 311 311 313 315 315 316 312 314 321 315 315 317 314 314 316 316 316 318 319 322 324 325
306 307 309 309 312 312 311 316 321 315 314 312 311 312 314 312 311 311 311 311 311 310 311 312 311 312 313 314 314 313 313 317 322 315 314 312 312 315 317 318 318 319 322 323 324
306 312 313 313 313 312 313 318 318 313 311 310 311 314 313 312 312 311 312 311 311 310 310 310 310 310 310 310 314 313 314 316 320 317 318 313 312 312 315 317 318 319 321 324 324
307 312 314 314 312 312 314 318 316 311 310 310 312 314 314 313 312 312 312 312 312 312 312 311 313 311 311 311 312 315 315 316 317 317 318 314 312 312 317 321 318 319 322 323 325
310 315 314 313 311 314 319 316 312 309 308 309 313 313 313 312 312 312 312 312 313 313 313 311 313 313 313 311 311 313 314 316 319 318 317 314 314 317 319 321 320 319 321 324 323
311 313 314 309 313 318 316 312 308 309 310 311 312 313 312 312 313 311 312 312 313 312 312 313 315 315 312 311 312 314 316 317 321 317 316 317 318 317 317 317 318 316 323 323 324
314 314 312 311 317 315 312 313 312 310 311 311 311 312 312 311 313 312 314 313 312 314 314 315 314 316 312 311 315 315 314 313 315 319 319 319 316 318 317 317 317 319 320 322 321
313 315 314 313 313 314 313 312 313 312 310 310 311 311 312 313 311 312 312 312 312 313 313 314 315 315 317 313 315 315 314 314 314 319 314 314 314 316 316 317 316 317 321 321 319
313 314 312 313 311 311 312 312 312 311 310 310 311 310 311 313 312 312 311 312 312 313 313 314 319 315 313 312 312 312 313 311 313 314 313 311 312 312 316 316 315 316 317 318 318
310 308 308 309 311 311 312 313 311 312 312 312 311 310 310 311 311 312 311 312 314 313 314 315 317 315 316 313 311 311 311 310 310 311 311 310 311 313 313 315 315 315 316 316 317
307 305 306 308 311 310 311 311 309 309 309 310 310 310 311 311 312 311 311 312 312 314 316 316 318 316 317 313 312 315 314 314 315 314 316 315 316 318 318 315 316 317 317 318 317
Wind_Speed
19 18 18 19 19 19 18 18 16 17 18 20 19 17 18 19 20 18 14 1 2 9 12 15 14 15 17 18 22 20 15 17 23 22 19 18 17 15 14 18 20 19 9 2 13
20 20 21 21 20 20 19 17 16 17 19 20 17 16 17 18 20 20 4 2 4 7 8 13 13 15 13 16 16 19 17 26 23 19 17 18 19 16 14 18 16 18 12 7 6
20 21 21 21 21 20 18 16 16 17 18 18 18 18 19 16 12 8 4 10 9 10 12 15 15 16 19 19 21 23 26 25 27 25 20 21 20 17 18 21 20 16 18 14 8
20 20 21 21 21 20 18 17 17 17 18 19 20 21 19 9 2 7 6 6 5 7 10 14 13 16 19 22 22 26 30 28 29 26 26 26 22 19 17 21 24 23 18 13 14
21 22 22 21 21 20 18 18 18 19 20 20 19 19 10 7 2 2 7 7 10 12 13 9 12 14 20 21 22 29 28 28 27 26 26 27 29 27 18 21 24 25 25 16 18
22 23 23 22 21 19 18 18 19 22 23 20 15 15 7 13 3 2 5 6 7 7 9 10 9 14 18 21 22 22 26 28 28 27 23 27 28 24 27 20 21 22 22 21 12
24 25 26 23 21 18 17 17 20 22 19 14 12 8 12 5 3 5 6 8 1 6 8 11 13 11 13 17 17 21 26 24 28 24 26 23 27 30 26 24 24 21 20 22 19
26 28 28 24 21 18 17 17 20 16 12 9 10 6 8 4 4 6 10 8 6 11 11 10 10 12 13 16 22 20 20 21 23 25 27 21 29 30 25 22 22 24 21 20 20
28 30 28 25 22 18 18 17 17 12 9 8 6 8 7 5 5 9 11 10 13 12 13 12 9 12 13 13 15 16 20 24 25 24 21 24 32 27 22 21 22 21 22 22 22
30 32 31 29 21 16 17 16 17 12 8 8 14 10 10 4 9 11 11 9 10 11 12 14 12 13 13 13 16 17 20 20 25 24 24 26 30 28 25 26 22 22 21 21 24
31 33 33 29 17 12 19 7 4 5 13 13 12 11 10 2 9 8 6 8 11 12 13 10 11 13 17 17 20 20 21 24 25 24 26 22 25 28 22 26 26 23 18 21 25
34 36 33 24 12 8 12 7 9 10 10 16 13 9 6 5 7 7 6 8 14 13 13 12 14 14 14 16 17 19 22 26 25 23 22 24 29 28 22 22 21 24 22 23 19
36 37 27 18 9 8 10 7 9 11 8 6 2 7 7 5 10 12 5 10 13 15 13 12 16 18 16 18 20 20 21 22 24 21 21 25 27 25 27 24 21 20 19 22 22
37 35 23 12 7 5 2 7 10 9 5 8 8 3 5 4 13 2 7 7 11 15 15 13 17 17 18 20 16 19 19 21 22 20 15 17 17 22 22 25 22 22 24 20 15
39 32 16 6 13 8 9 11 10 5 4 5 8 6 4 7 9 8 2 6 13 14 13 15 15 15 17 18 18 22 22 23 23 21 22 24 15 18 21 25 21 22 24 24 17
39 29 10 3 7 6 10 11 5 5 2 5 1 4 9 10 12 5 10 11 17 18 16 20 10 14 9 16 21 19 21 24 23 18 19 24 21 20 20 22 25 22 21 22 22
38 22 11 11 9 10 12 10 5 6 3 3 6 10 13 16 7 3 7 12 10 10 12 15 11 3 5 10 21 15 14 11 16 15 17 23 22 18 24 23 25 27 22 20 15
37 12 5 10 9 9 13 9 5 10 8 14 10 15 18 1 5 8 13 13 9 12 12 13 14 8 3 10 17 16 16 7 13 15 16 19 17 13 22 23 23 26 22 23 9
33 8 5 9 4 7 7 6 4 10 12 11 14 14 7 7 4 14 14 9 7 9 15 13 19 17 19 17 12 17 15 14 11 22 19 18 24 14 21 24 23 25 25 10 11
25 12 10 5 2 7 6 11 14 7 9 11 12 9 12 16 14 13 13 9 8 12 11 15 19 18 24 21 14 24 17 15 7 6 16 16 17 14 13 23 18 23 17 17 16
8 4 6 1 3 5 6 12 11 14 12 6 12 14 14 14 14 14 17 15 13 15 17 16 13 18 18 19 19 14 16 9 5 5 6 12 11 11 17 21 26 29 22 10 3
8 3 5 2 5 4 6 8 6 7 8 10 7 12 10 14 15 16 17 14 14 13 15 12 6 15 21 23 17 9 15 5 8 10 11 13 19 15 21 26 27 29 8 12 7
7 6 6 4 3 7 10 12 12 6 9 13 11 10 12 13 14 8 15 16 13 16 6 5 5 12 14 14 9 8 21 17 14 9 13 12 11 13 20 21 24 23 27 16 8
5 4 0 3 1 6 10 13 12 6 11 6 7 11 12 13 14 13 19 18 9 10 16 7 12 15 14 19 10 11 21 21 17 12 18 13 16 13 9 9 20 25 23 16 8
4 5 5 6 10 14 12 12 14 9 10 9 9 12 11 13 16 18 15 20 16 14 9 2 8 15 19 21 22 23 24 25 21 22 20 18 17 11 10 8 13 21 29 23 11
6 5 7 12 11 13 11 11 12 11 11 14 15 16 15 13 15 24 22 18 15 14 8 5 8 14 21 21 22 24 22 24 25 22 23 22 17 11 8 18 19 22 23 13 11
10 3 4 9 9 10 8 10 13 15 7 12 14 16 19 18 21 22 21 21 21 18 12 5 6 10 21 18 16 15 10 18 20 19 10 12 13 16 17 14 14 16 15 13 10
Wind_Direction
343 341 338 335 333 331 329 327 326 328 329 325 319 315 314 313 308 295 242 339 284 323 310 288 274 257 240 248 253 240 243 246 250 258 271 278 278 285 281 281 261 279 262 5 2
341 339 336 333 332 330 330 328 327 327 331 330 324 319 318 317 308 281 71 21 343 334 307 264 254 241 234 244 231 238 241 241 246 257 265 273 286 282 268 264 243 246 236 159 168
341 338 334 331 329 328 326 322 319 321 327 331 329 323 319 321 282 109 62 332 293 276 274 272 272 276 254 238 232 234 244 243 250 255 251 268 281 280 275 270 264 228 249 169 207
342 338 333 330 328 325 322 318 315 317 321 320 319 323 320 295 6 115 9 338 331 268 272 258 249 242 248 250 239 241 244 248 256 264 277 276 272 251 256 276 289 295 237 240 196
342 338 336 332 328 324 320 317 313 313 313 317 316 326 334 235 43 108 327 272 284 252 257 271 270 261 253 251 247 253 251 250 247 247 261 273 271 274 244 256 273 283 289 281 192
343 339 335 332 327 322 316 313 313 312 309 311 310 319 268 279 32 345 302 292 296 311 314 295 272 281 286 278 264 263 256 258 259 259 249 242 257 265 259 252 249 267 278 283 181
346 342 337 332 328 320 312 308 312 309 306 299 300 305 278 285 325 306 306 318 319 308 301 304 324 305 297 297 265 267 273 276 263 264 256 256 255 246 256 257 256 255 263 272 280
345 341 337 332 328 319 311 305 315 313 306 292 293 288 273 86 309 339 332 316 311 315 284 270 282 287 277 278 293 282 273 265 254 247 254 262 265 248 249 257 243 254 259 265 260
346 341 336 331 324 316 309 301 305 304 289 289 284 219 264 159 238 333 317 314 314 304 306 283 256 269 286 263 267 243 257 260 266 257 256 231 253 255 255 251 255 242 242 251 252
342 340 335 330 321 312 302 301 288 275 270 248 256 267 255 240 353 308 299 306 306 293 288 253 235 257 243 247 254 267 257 252 252 256 262 262 248 244 240 254 248 245 254 240 241
343 340 334 327 319 306 310 325 218 203 235 270 287 270 284 344 300 288 336 304 299 300 274 307 300 273 284 279 278 299 294 284 282 292 298 287 269 261 245 228 234 246 251 244 254
345 341 336 330 315 281 294 293 30 317 303 284 268 259 281 268 283 310 324 307 321 302 302 279 262 266 287 287 276 281 282 279 286 292 291 285 279 279 274 257 249 226 227 244 260
347 343 338 330 307 265 257 26 331 323 287 291 243 223 228 212 279 311 328 310 302 310 300 302 303 307 298 291 286 275 273 278 285 291 281 281 281 278 273 280 276 280 271 226 228
347 342 334 321 300 291 222 342 331 344 276 136 191 187 227 235 264 324 282 313 303 299 303 300 294 284 281 272 273 273 273 277 281 280 271 273 275 263 269 263 259 267 273 267 252
347 341 330 277 310 296 349 332 330 265 260 153 124 112 251 240 287 271 127 265 280 292 288 289 291 294 289 307 333 310 313 304 286 279 277 266 260 269 268 269 254 251 239 261 255
346 339 303 272 238 319 332 327 271 244 268 154 158 242 274 307 291 334 268 264 250 250 259 267 276 275 332 310 303 299 290 283 289 274 263 265 261 264 265 269 268 265 250 236 232
341 332 276 294 333 335 328 285 249 261 133 101 348 325 316 285 345 317 297 285 285 311 297 310 320 329 17 301 321 281 293 288 258 252 262 257 255 260 264 265 266 268 275 266 261
338 323 276 261 313 331 310 274 274 298 1 6 330 313 270 53 313 258 271 280 317 334 314 322 307 353 168 242 266 274 279 270 282 261 274 291 284 278 311 305 273 269 266 257 263
340 314 251 247 292 314 291 260 299 5 352 334 314 288 334 324 266 308 303 326 359 322 303 302 294 295 295 300 300 291 287 239 241 270 263 275 286 256 259 260 268 264 257 236 260
329 295 249 176 274 289 266 263 286 18 351 326 301 290 330 322 315 323 322 337 341 322 332 310 303 301 300 299 278 267 290 294 280 302 279 261 267 272 308 346 264 255 261 249 233
290 250 104 241 288 247 261 293 352 358 327 309 319 315 314 318 325 323 313 324 2 341 331 317 313 307 304 283 282 300 259 261 10 230 261 276 273 63 354 352 334 329 247 220 226
303 305 121 274 257 235 257 349 311 299 317 271 270 309 309 312 311 305 300 311 334 329 314 337 293 288 287 286 310 192 283 256 280 292 288 287 279 18 13 351 338 333 43 292 340
303 296 145 241 312 336 334 321 308 352 322 320 308 320 330 298 299 300 301 299 338 328 322 351 287 308 297 281 41 352 311 306 297 284 264 268 294 44 24 340 330 331 314 295 337
289 321 71 281 216 305 338 314 323 319 288 310 311 290 307 306 308 296 298 305 324 288 299 276 266 259 277 289 286 250 276 276 284 283 283 273 306 290 21 308 328 307 289 280 319
291 13 21 309 334 320 297 299 302 315 323 303 301 308 299 307 305 295 293 300 307 312 301 264 264 276 279 283 278 275 263 276 243 246 265 286 289 291 201 194 259 250 263 290 314
347 352 344 294 311 300 288 306 328 322 339 309 303 308 319 295 274 285 302 305 308 304 285 320 275 293 285 281 279 275 274 272 271 271 268 271 278 304 247 178 223 255 265 284 300
9 356 333 298 289 308 332 329 311 312 308 309 323 310 299 295 290 302 298 290 281 276 293 283 286 290 277 292 290 291 304 307 328 323 349 307 324 316 334 340 317 311 322 312 300